| time (UTC) | temp F | wind direction | speed MPH | gust MPH | rain 1hr in | rain 24hr in | rain mn in | humidity % | barometer mb |
| 20260905201958 | 41 | 270 | 54.0 | 64.0 | 0.00 | 0.00 | 0.00 | 99 | |
| 20260905192220 | 41 | 240 | 45.0 | 59.0 | 0.00 | 0.00 | 0.00 | 99 | |
| 20260905182306 | 43 | 250 | 47.0 | 59.0 | 0.00 | 0.00 | 0.00 | 86 | |
| 20260905172026 | 45 | 250 | 38.0 | 49.0 | 0.00 | 0.00 | 0.00 | 75 | |
| 20260905162402 | 45 | 250 | 31.0 | 47.0 | 0.00 | 0.00 | 0.00 | 81 | |
| 20260905152156 | 45 | 240 | 26.0 | 60.0 | 0.00 | 0.00 | 0.00 | 81 | |
| 20260905142255 | 45 | 230 | 24.0 | 45.0 | 0.00 | 0.00 | 0.00 | 81 | |
| 20260905132158 | 45 | 240 | 20.0 | 36.0 | 0.00 | 0.00 | 0.00 | 81 | |
| 20260905121700 | 45 | 230 | 36.0 | 52.0 | 0.00 | 0.00 | 0.00 | 81 | |
| 20260905112011 | 43 | 230 | 20.0 | 45.0 | 0.00 | 0.00 | 0.00 | 93 | |
| 20260905102440 | 43 | 250 | 31.0 | 43.0 | 0.00 | 0.00 | 0.00 | 86 | |
| 20260905092208 | 41 | 240 | 36.0 | 49.0 | 0.00 | 0.00 | 0.00 | 99 | |
| 20260905082004 | 41 | 250 | 52.0 | 62.0 | 0.00 | 0.00 | 0.00 | 93 | |
| 20260905072306 | 41 | 260 | 38.0 | 52.0 | 0.00 | 0.00 | 0.00 | 99 | |
| 20260905062010 | 39 | 250 | 49.0 | 0.0 | 0.00 | 0.00 | 0.00 | 99 | |
| 20260905052002 | 41 | 250 | 47.0 | 60.0 | 0.00 | 0.00 | 0.00 | 99 | |
| 20260905042411 | 43 | 260 | 54.0 | 76.0 | 0.00 | 0.00 | 0.00 | 99 | |
| 20260905032011 | 41 | 270 | 69.0 | 87.0 | 0.00 | 0.00 | 0.00 | 99 | |
| 20260905022003 | 46 | 270 | 64.0 | 76.0 | 0.00 | 0.00 | 0.00 | 70 | |
| 20260905012306 | 43 | 280 | 62.0 | 76.0 | 0.00 | 0.00 | 0.00 | 86 | |
| 20260905002028 | 46 | 270 | 60.0 | 71.0 | 0.00 | 0.00 | 0.00 | 99 | |
| 20260904232048 | 46 | 260 | 38.0 | 49.0 | 0.00 | 0.00 | 0.00 | 99 | |
| 20260904222417 | 48 | 240 | 33.0 | 49.0 | 0.00 | 0.00 | 0.00 | 99 | |
| 20260904212031 | 50 | 270 | 33.0 | 45.0 | 0.00 | 0.00 | 0.00 | 99 |